User: anonymous   Login
Location: Cañada de la Miga
(34.7595°N, 106.2317°W)
Time: 00:38:37
(UTC+00:00)
Language:

A-11 Canister half - Orbit

View from above orbital plane
View from above orbital plane
View from above satellite
View from above satellite

Ground track
Ground track

The orbit data is extracted from the following two-line orbital elements,

1 00053U 60009E   21331.22516609 -.00000113  00000-0 -28617-3 0  9998
2 00053  47.2777  71.4037 0100389 200.3447 159.3327 12.17266417732859
Epoch (UTC): 27 November 2021 05:24:14
Eccentricity: 0.0100389
inclination: 47.2777°
perigee height: 1524 km
apogee height: 1684 km
right ascension of ascending node: 71.4037°
argument of perigee: 200.3447°
revolutions per day: 12.17266417
mean anomaly at epoch: 159.3327°
orbit number at epoch: 73285

The dashed part of the orbit path shows where the satellite is in the earth's shadow,  

DLR